Wetbulb
53.72 54.13 54.94 54.93 55.03 55.09 54.76 54.87 54.87 55.01 55.03 54.96 55.19 55.31 55.45 55.44 55.21 54.36 53.24 55.51 51.27 47.15 49.88 51.50 51.59 49.40 50.57 50.88 48.72 53.42 52.49 53.62 52.35 51.68 52.31 52.89 53.38 54.71 54.15 56.17 55.96 55.68 53.96 53.43 54.62 52.82 50.77 62.75 61.60 57.11 65.02 67.07 66.60 67.22
54.04 54.41 54.39 54.57 54.70 54.68 54.82 54.96 54.84 54.76 54.99 54.93 54.88 54.81 54.93 54.95 55.36 54.50 51.66 56.03 56.48 49.42 49.16 52.92 52.87 54.00 53.31 53.31 51.24 52.07 51.96 53.13 55.78 53.32 55.09 56.29 54.56 56.44 56.22 51.80 58.55 54.85 57.11 55.05 55.31 55.76 64.93 64.83 65.60 67.00 66.80 66.98 66.91 68.44
54.23 54.31 54.41 54.57 54.94 54.90 54.82 54.98 55.08 55.11 55.13 55.09 55.06 55.09 54.91 55.04 55.17 54.43 53.09 55.39 55.00 49.22 49.42 49.96 49.70 54.90 56.76 55.71 56.28 48.84 52.09 54.40 54.75 56.63 53.59 55.25 54.56 58.80 54.09 55.98 57.21 59.33 61.72 57.66 57.79 62.55 64.07 65.48 66.91 67.52 67.37 66.93 67.32 68.35
54.15 54.25 54.41 54.53 54.51 54.76 54.70 55.22 55.24 55.27 55.21 55.09 55.11 55.06 54.96 54.93 54.90 54.86 53.00 56.03 53.75 48.93 42.83 47.14 54.73 52.60 56.22 56.76 56.15 55.49 53.74 55.00 55.56 55.80 51.95 52.92 54.19 55.17 55.52 58.34 57.42 59.60 61.41 59.91 61.64 63.90 64.68 65.24 65.06 66.00 66.40 66.87 66.68 67.37
54.15 54.04 54.33 54.41 54.49 54.58 54.72 55.02 54.98 54.94 55.12 55.08 54.66 54.63 54.65 55.02 54.65 55.90 57.84 56.33 56.00 48.38 42.04 46.29 51.82 53.50 54.60 54.92 53.61 55.36 53.93 52.58 52.18 50.62 50.84 50.34 55.92 57.25 59.74 59.47 57.83 60.69 59.66 56.99 56.84 64.12 63.87 64.05 64.53 65.54 65.91 65.69 66.73 67.12
53.89 54.07 54.23 54.33 54.42 54.66 54.74 54.66 54.74 54.53 54.23 54.03 54.31 54.80 54.92 54.76 54.07 53.22 46.92 54.41 55.31 56.74 45.52 41.13 51.59 51.60 52.43 53.49 52.54 52.96 53.77 52.79 51.99 50.66 50.93 53.35 56.47 56.57 53.65 56.16 61.82 61.81 62.31 64.26 63.15 64.63 64.28 64.24 64.56 63.93 65.86 66.41 67.12 67.65
53.91 54.03 53.95 54.11 54.27 54.54 54.56 54.47 54.59 54.29 54.17 54.04 54.04 54.33 54.49 53.94 55.87 49.75 49.03 52.58 54.10 53.18 44.37 40.26 44.62 51.97 50.57 50.77 52.63 52.12 53.03 51.43 52.43 51.27 51.39 53.07 53.54 54.94 54.76 53.40 59.98 62.75 64.54 65.07 66.10 65.05 62.93 63.20 62.40 63.56 63.16 63.99 65.80 68.85
53.21 53.23 53.41 53.72 53.90 54.19 54.25 54.19 54.19 54.05 54.15 53.94 53.74 53.99 53.70 53.20 52.59 51.03 53.90 52.84 54.74 49.58 47.26 39.26 41.80 45.36 50.25 46.43 46.51 51.99 48.68 50.09 50.97 51.56 53.63 52.91 53.37 55.31 51.94 58.74 61.18 63.11 65.59 64.56 64.34 64.05 64.00 64.46 63.86 63.95 63.05 63.52 62.39 64.86
52.96 53.08 53.23 53.29 53.50 53.70 53.87 53.91 53.90 54.19 54.11 53.82 53.12 53.67 54.40 51.48 48.68 51.29 53.93 54.23 55.33 50.11 41.25 40.99 37.20 35.96 46.43 48.67 49.69 49.63 50.02 44.84 52.56 49.36 50.77 53.94 52.03 49.89 56.17 58.82 60.11 61.57 61.38 61.77 63.24 62.45 61.81 60.99 61.42 61.89 61.81 62.02 62.25 62.29
52.86 52.80 52.96 53.03 53.29 53.46 53.49 53.77 54.09 53.76 53.81 53.35 53.62 50.55 46.26 50.98 54.06 53.79 51.57 47.39 46.57 47.42 45.67 41.32 45.75 38.86 45.92 46.16 47.09 48.83 49.05 46.56 45.77 50.06 53.61 50.03 50.79 55.79 58.13 59.72 60.75 60.87 60.79 60.29 58.70 58.76 59.68 60.07 60.63 60.76 61.33 62.34 61.84 61.89
52.71 52.70 52.84 52.76 52.97 53.02 53.26 53.55 53.73 53.85 52.58 53.15 49.60 47.68 53.13 54.09 51.67 48.16 43.58 42.00 43.27 41.08 44.22 45.73 44.90 40.62 47.90 44.22 47.86 51.01 46.77 48.46 43.64 49.01 49.11 48.44 48.23 53.80 58.27 59.25 60.36 60.26 60.32 60.21 60.17 60.01 60.06 59.89 60.09 59.92 60.38 61.06 61.46 62.07
52.65 52.41 52.54 52.71 52.47 52.52 53.06 53.29 53.75 53.31 54.21 51.88 51.85 54.49 55.67 48.64 45.60 41.38 40.79 43.42 42.96 41.44 45.47 45.70 45.96 47.44 50.96 52.84 49.73 50.49 48.25 49.89 45.01 52.39 48.47 45.35 50.86 58.29 60.07 60.35 62.28 64.21 64.31 63.76 64.08 63.29 62.62 60.99 60.07 60.08 59.56 59.90 60.48 61.56
52.17 52.27 52.25 52.16 52.41 52.42 52.46 53.45 53.52 52.87 52.31 54.82 51.81 48.53 49.60 47.55 38.04 38.07 36.93 39.27 39.43 43.75 45.76 47.19 44.64 49.60 53.26 53.05 50.07 51.43 47.12 46.93 52.12 47.73 47.30 52.54 58.44 60.45 61.41 62.61 63.23 64.68 64.74 64.81 65.11 65.97 66.09 65.84 66.67 64.39 61.39 61.61 61.46 61.76
51.90 52.07 52.00 52.21 53.24 52.68 52.46 53.09 52.90 52.97 51.54 48.38 44.63 38.97 42.33 41.25 43.71 44.01 40.60 39.45 41.94 42.77 43.98 45.53 45.51 48.31 54.08 51.13 52.09 46.14 51.26 51.18 48.22 45.67 47.06 56.37 58.98 59.73 60.62 61.21 61.13 61.39 63.26 64.39 65.81 66.17 66.36 65.67 66.55 67.09 64.13 63.98 63.66 62.83
51.89 51.94 52.16 53.08 53.01 52.40 52.79 52.50 52.48 54.37 51.74 45.50 44.62 38.21 42.37 46.77 48.89 48.96 51.14 49.45 50.29 51.12 50.90 48.65 49.54 50.77 51.22 49.38 50.75 48.39 45.98 44.25 46.41 47.70 53.90 56.71 59.61 60.36 60.38 60.61 60.50 60.94 61.89 62.51 63.62 65.10 66.75 66.76 65.73 66.00 65.75 65.47 65.57 65.63
51.87 51.89 51.95 52.58 53.06 52.48 52.45 53.55 54.12 55.06 51.22 47.34 45.87 45.85 48.07 46.11 45.70 47.53 48.67 49.93 52.50 51.71 53.83 52.82 48.66 47.57 45.89 48.69 45.68 45.30 44.30 44.94 49.01 52.53 56.14 59.11 59.56 60.37 60.58 61.15 61.36 62.03 61.87 62.28 62.67 63.54 65.45 67.21 67.36 66.39 65.89 65.73 65.85 65.61
51.37 52.25 51.99 52.40 52.96 52.90 52.53 53.71 54.10 49.37 47.76 45.08 46.08 51.63 49.77 48.59 46.95 47.40 49.71 50.11 53.96 50.93 46.16 49.53 44.61 45.21 51.30 47.49 45.04 49.18 48.20 50.55 54.24 56.65 59.69 59.48 59.02 59.52 60.64 61.40 61.57 61.98 62.55 62.54 62.48 63.26 65.35 67.24 67.90 67.70 65.91 66.64 66.06 66.70
51.71 52.38 51.64 52.00 53.16 53.62 54.08 53.56 51.15 48.03 43.61 48.31 47.36 49.48 50.74 51.10 49.84 50.28 51.74 52.43 51.25 50.13 49.60 45.79 50.07 46.02 44.94 43.85 47.87 51.95 55.36 57.79 56.66 57.03 58.23 59.03 60.38 61.25 61.31 61.43 62.01 62.11 61.82 62.99 63.03 63.08 63.66 65.45 66.35 66.43 67.71 67.31 66.81 66.51
51.28 51.70 51.80 51.90 52.82 50.77 49.20 50.24 51.99 43.99 44.45 47.43 50.10 51.07 50.95 51.48 52.70 52.99 52.91 53.81 54.34 54.39 52.06 50.23 46.31 46.69 46.56 49.69 49.85 51.97 52.79 53.28 53.24 54.93 57.34 59.12 60.34 60.61 61.24 61.79 62.11 62.37 61.88 61.99 62.24 61.93 62.14 63.84 63.82 66.53 67.33 68.03 66.24 66.52
51.80 52.31 52.20 52.14 52.43 50.36 45.97 48.13 52.51 47.23 44.20 47.85 48.51 47.86 48.82 49.70 52.47 52.92 52.96 52.40 52.94 51.58 47.75 47.76 48.61 49.48 50.51 52.83 54.27 54.00 55.42 55.68 55.47 54.85 55.53 57.08 58.81 60.45 60.53 60.30 59.83 61.24 60.95 61.54 61.66 56.18 62.09 62.13 62.51 64.15 67.06 66.86 67.22 67.24
51.82 52.35 52.51 52.97 51.10 49.90 48.52 47.72 46.82 47.03 46.86 46.02 48.17 48.47 48.32 51.51 51.08 51.07 50.33 54.76 50.55 47.41 47.20 51.68 51.06 52.18 55.36 58.37 58.39 57.96 58.27 58.23 56.74 56.92 55.27 55.93 58.68 58.92 58.66 59.27 60.27 60.52 60.18 60.35 60.38 60.61 58.43 61.81 62.53 63.03 63.11 65.31 67.08 67.98
51.52 52.65 51.69 52.22 48.04 47.51 46.28 46.86 45.53 47.45 47.05 46.43 46.40 48.13 46.71 46.94 47.55 48.07 50.06 47.57 47.64 48.48 48.88 49.32 50.62 51.38 51.42 53.86 56.30 58.30 58.71 58.72 59.20 57.82 53.23 55.60 57.27 58.04 59.01 59.95 60.01 59.71 60.36 61.01 61.46 61.51 62.10 62.87 63.46 63.68 63.82 63.88 62.43 66.92
52.16 52.05 49.12 48.00 43.14 40.34 39.87 45.54 42.19 44.71 42.47 44.96 45.42 43.63 44.77 46.14 47.85 51.31 46.07 47.40 48.36 51.27 50.55 50.05 50.54 50.33 49.39 53.62 55.69 57.33 58.82 58.49 58.18 58.69 58.29 57.62 57.75 58.28 58.68 59.62 60.31 59.52 59.36 60.45 61.78 61.72 61.92 57.78 61.25 62.49 63.80 63.42 63.84 64.53
51.34 48.06 44.67 43.01 41.15 37.98 41.98 40.33 43.65 43.94 43.93 42.39 42.20 41.85 44.89 46.24 50.15 46.29 43.38 45.84 48.25 51.30 49.11 48.50 49.29 48.14 48.81 50.24 52.87 55.23 57.50 55.35 54.30 54.06 54.29 52.35 51.41 51.77 55.49 57.05 57.47 58.55 59.63 60.57 60.21 60.78 62.39 62.76 56.96 62.90 63.34 63.38 63.35 63.26
41.45 41.46 41.59 36.69 43.86 39.98 38.97 39.80 40.36 40.92 39.92 43.07 42.86 45.42 49.21 51.12 48.20 44.26 42.76 47.15 50.31 51.16 50.86 50.34 49.34 48.92 47.10 47.82 50.50 53.17 56.37 56.31 52.63 50.67 52.72 52.84 50.86 51.40 49.85 52.02 56.59 57.35 56.88 56.59 58.15 59.96 60.50 61.52 62.43 62.90 62.09 61.58 61.96 62.52
38.62 45.70 41.68 46.69 47.78 45.57 46.95 45.10 46.00 46.67 48.11 45.79 48.20 52.31 51.92 48.68 44.29 43.24 46.48 49.04 49.52 49.70 51.02 51.85 50.55 50.45 50.09 51.44 52.23 53.05 55.04 56.93 58.10 54.46 54.65 54.16 50.94 48.95 47.31 46.23 47.69 49.08 51.96 51.58 57.58 56.16 58.73 61.07 60.66 60.88 62.18 60.86 54.18 60.17
44.15 51.02 53.46 56.70 56.08 54.39 52.17 54.14 55.52 53.20 48.66 47.95 50.90 50.32 49.34 42.92 42.02 46.79 51.32 51.85 50.27 51.58 53.30 53.43 52.91 51.89 51.24 50.46 52.61 53.27 53.55 54.17 53.42 53.78 56.32 56.00 55.67 55.33 54.00 50.83 47.11 48.72 50.49 51.86 56.01 57.31 57.55 57.40 57.82 57.59 58.22 59.97 60.31 61.21
53.68 55.44 51.39 54.39 54.32 55.92 51.64 52.31 51.07 49.03 50.99 53.78 52.66 47.28 45.33 44.61 45.29 50.45 51.64 51.86 52.31 51.53 51.88 52.66 52.60 52.00 51.93 52.59 52.65 52.92 51.54 51.82 52.26 51.16 51.64 52.58 53.38 53.53 53.42 53.89 55.66 45.55 52.33 55.85 53.27 54.25 57.13 57.91 57.92 58.37 57.30 57.12 58.48 59.71
54.26 56.61 55.68 51.72 52.53 53.02 52.49 51.75 51.95 53.70 54.95 52.43 49.48 48.23 47.69 50.53 51.13 50.38 51.80 52.87 53.51 51.55 49.97 48.71 48.73 51.52 50.97 51.05 51.32 51.77 51.34 51.09 49.53 47.89 46.93 47.06 48.52 49.59 51.40 51.31 51.76 53.11 54.39 56.13 48.29 47.57 51.84 53.73 56.53 58.82 59.03 58.70 58.95 58.71
54.87 56.63 53.44 52.21 50.84 50.67 54.53 55.36 54.32 55.71 56.17 55.50 54.47 52.75 51.19 50.50 51.89 53.13 51.99 51.46 51.02 51.96 52.29 52.59 52.41 51.33 49.74 49.51 49.62 50.91 51.96 52.54 52.29 50.83 48.38 47.59 48.94 51.34 52.03 52.06 52.11 51.72 51.94 52.58 54.99 56.52 49.49 53.46 53.58 57.54 57.75 58.88 59.54 58.34
58.89 56.19 53.77 53.02 52.51 54.68 56.78 57.14 56.83 55.11 53.51 52.55 52.56 50.57 48.21 49.19 50.23 51.01 49.43 49.57 48.96 51.00 50.53 49.76 49.86 50.60 50.07 50.35 50.33 50.25 49.65 52.22 52.87 52.43 50.80 50.14 50.04 50.34 50.69 51.93 52.45 52.55 52.57 51.84 51.37 52.53 55.35 55.09 55.53 55.09 53.87 53.74 54.23 54.68
56.23 54.46 52.87 51.10 53.86 57.08 56.64 54.98 55.82 52.74 50.52 49.60 49.33 51.08 51.81 48.52 46.90 50.09 54.67 53.64 51.50 50.06 47.36 50.13 50.85 51.01 52.65 52.68 52.81 52.38 44.11 51.42 51.02 50.82 49.87 49.21 48.88 49.62 50.19 51.27 51.35 51.65 51.74 51.94 52.07 52.23 53.11 53.76 53.21 52.90 54.00 54.31 53.88 53.50
55.89 56.32 55.52 55.70 55.43 53.83 55.32 56.26 52.60 47.96 48.71 48.35 49.97 52.89 51.13 50.93 47.51 51.70 54.90 53.81 51.69 50.92 51.30 51.75 52.03 52.62 52.54 52.05 51.21 50.13 46.84 50.71 46.76 39.96 39.98 39.28 39.17 41.51 47.59 50.20 50.36 50.47 50.16 50.48 50.94 51.03 51.07 51.92 51.28 51.00 49.17 48.95 50.04 51.38
MSLP
1023.58 1023.19 1022.88 1022.57 1022.30 1022.00 1021.80 1021.58 1021.33 1021.06 1020.81 1020.54 1020.33 1020.10 1019.92 1019.83 1019.84 1019.73 1018.38 1018.44 1018.27 1017.16 1014.80 1013.97 1013.46 1012.70 1011.60 1010.75 1008.95 1006.63 1006.27 1004.53 1003.69 1002.15 1000.74 999.04 997.12 995.37 994.50 993.83 993.61 993.71 994.17 993.68 993.65 993.39 993.35 993.83 994.42 994.58 995.87 996.39 996.92 997.22
1023.32 1023.00 1022.69 1022.37 1022.08 1021.81 1021.54 1021.21 1020.86 1020.62 1020.41 1020.19 1020.03 1019.86 1019.71 1019.58 1019.46 1019.63 1018.42 1017.38 1018.04 1018.18 1015.66 1014.60 1014.19 1013.73 1013.06 1011.92 1011.12 1009.66 1007.90 1007.05 1005.07 1003.64 1001.66 1000.12 998.49 995.99 994.58 993.21 993.34 993.23 993.44 993.63 993.96 993.64 994.38 994.83 995.04 995.62 996.02 996.64 997.40 997.71
1023.00 1022.76 1022.44 1022.12 1021.82 1021.54 1021.21 1020.80 1020.47 1020.18 1019.92 1019.80 1019.69 1019.50 1019.29 1019.17 1019.13 1019.19 1018.46 1018.00 1018.28 1017.60 1015.48 1013.52 1012.64 1011.65 1011.58 1011.69 1011.64 1010.76 1009.28 1008.38 1007.16 1006.40 1005.40 1002.87 1000.17 998.14 996.30 993.86 993.03 993.44 993.44 993.16 993.90 994.41 995.21 996.23 996.52 996.63 997.08 997.26 997.58 997.61
1022.69 1022.47 1022.17 1021.82 1021.50 1021.19 1020.84 1020.45 1020.05 1019.74 1019.48 1019.31 1019.13 1018.92 1018.72 1018.62 1018.51 1018.47 1018.25 1017.54 1018.01 1017.60 1015.94 1012.68 1011.52 1010.92 1010.59 1010.17 1010.14 1010.40 1010.08 1009.19 1008.07 1007.80 1006.52 1004.22 1001.45 1000.57 997.94 995.81 993.70 994.21 993.75 994.12 994.27 995.44 995.97 996.69 997.04 997.14 997.62 997.81 997.97 997.90
1022.38 1022.15 1021.81 1021.49 1021.19 1020.88 1020.47 1020.04 1019.66 1019.34 1019.13 1018.87 1018.58 1018.39 1018.17 1018.00 1017.86 1017.64 1017.39 1017.14 1017.28 1017.65 1016.12 1013.53 1012.05 1011.16 1010.64 1010.22 1009.89 1009.70 1009.65 1009.55 1008.96 1008.15 1006.79 1005.07 1002.94 1001.78 1000.47 996.46 993.77 995.48 993.68 994.15 994.08 994.86 996.00 997.00 997.69 998.18 998.17 998.31 998.44 998.29
1022.00 1021.68 1021.35 1021.08 1020.84 1020.46 1020.07 1019.71 1019.37 1019.13 1018.90 1018.63 1018.23 1017.96 1017.69 1017.58 1017.58 1017.65 1017.19 1015.83 1016.37 1016.63 1016.76 1014.66 1011.52 1010.57 1010.06 1009.64 1009.25 1009.25 1009.09 1009.11 1008.90 1007.90 1006.96 1005.32 1003.58 1001.93 999.07 996.36 995.03 994.28 994.09 995.00 995.71 996.47 997.13 997.92 998.28 998.59 998.58 998.74 998.96 998.45
1021.54 1021.23 1020.89 1020.66 1020.34 1020.04 1019.67 1019.28 1019.01 1018.85 1018.60 1018.29 1017.97 1017.76 1017.58 1017.53 1017.31 1017.27 1017.00 1017.05 1016.77 1017.15 1016.82 1015.46 1012.33 1010.48 1010.49 1009.43 1008.49 1008.20 1008.59 1008.78 1008.23 1007.60 1006.80 1005.39 1004.12 1002.90 1000.61 997.58 996.09 995.33 995.76 996.32 997.21 998.06 998.43 998.30 998.36 999.15 999.18 999.12 998.96 998.41
1021.11 1020.80 1020.53 1020.30 1019.96 1019.66 1019.30 1018.99 1018.72 1018.50 1018.24 1017.96 1017.78 1017.65 1017.44 1017.43 1017.47 1016.95 1016.49 1017.01 1016.99 1017.20 1017.05 1015.73 1013.37 1012.11 1010.75 1010.04 1008.53 1007.68 1008.12 1008.56 1007.70 1006.71 1005.89 1004.85 1004.41 1002.92 1001.08 998.85 999.09 998.19 998.60 997.75 998.22 998.69 998.73 999.07 999.33 999.49 999.65 999.46 999.28 998.89
1020.75 1020.42 1020.23 1019.91 1019.60 1019.29 1019.00 1018.62 1018.37 1018.08 1017.85 1017.66 1017.55 1017.49 1017.32 1017.38 1016.99 1016.52 1016.53 1016.56 1016.66 1016.94 1016.28 1015.41 1014.34 1013.41 1012.05 1010.01 1008.75 1008.09 1007.81 1007.49 1006.10 1005.78 1005.24 1004.18 1002.85 1002.29 1000.68 999.29 999.18 998.87 998.64 998.26 998.59 998.96 999.40 999.62 999.81 999.85 999.81 999.63 999.49 999.35
1020.35 1020.03 1019.83 1019.54 1019.17 1018.85 1018.58 1018.26 1017.96 1017.71 1017.51 1017.35 1017.19 1017.07 1016.43 1016.43 1016.35 1016.40 1016.42 1016.35 1016.29 1015.90 1015.59 1014.45 1013.70 1013.03 1011.81 1009.91 1008.79 1006.87 1006.59 1005.25 1004.22 1003.78 1004.07 1003.54 1001.75 1001.32 1000.51 1000.02 999.85 999.73 999.71 999.68 999.72 999.69 999.72 999.67 999.71 999.63 999.54 999.56 999.54 999.57
1019.91 1019.67 1019.41 1019.05 1018.77 1018.41 1018.16 1017.92 1017.58 1017.33 1017.23 1016.83 1016.33 1016.08 1016.03 1016.28 1016.31 1016.06 1015.64 1015.59 1015.20 1014.78 1014.02 1012.78 1012.38 1011.95 1010.23 1008.86 1007.20 1006.26 1004.59 1003.70 1002.35 1001.36 1002.04 1001.22 1000.63 1000.52 1000.75 1000.37 1000.17 1000.09 1000.06 1000.05 999.93 999.82 999.81 999.73 999.64 999.57 999.48 999.45 999.53 999.63
1019.54 1019.24 1018.92 1018.62 1018.25 1017.98 1017.77 1017.50 1017.28 1016.94 1015.98 1016.37 1016.33 1015.84 1015.62 1015.87 1015.61 1015.45 1014.64 1014.10 1013.77 1012.55 1012.09 1011.20 1011.06 1010.60 1008.41 1007.09 1005.81 1005.08 1003.89 1001.89 1000.54 1000.59 1001.11 1000.59 1000.52 1000.29 1000.16 1000.32 1000.23 1000.22 1000.11 999.82 999.57 999.44 999.42 999.37 999.24 999.20 999.17 999.14 999.21 999.47
1019.10 1018.81 1018.44 1018.00 1017.70 1017.48 1017.36 1017.12 1016.90 1016.82 1016.29 1015.77 1015.91 1014.78 1014.30 1014.19 1014.23 1013.86 1013.47 1013.42 1013.22 1012.77 1011.92 1011.05 1010.49 1009.22 1007.50 1005.90 1005.37 1003.91 1003.09 1001.21 1001.18 1000.52 999.98 1000.81 1001.10 1001.80 1001.63 1001.14 1000.79 1000.47 1000.28 1000.10 1000.03 999.92 999.70 999.44 999.26 999.17 999.16 999.27 999.32 999.39
1018.80 1018.33 1017.95 1017.46 1016.98 1016.89 1016.98 1016.92 1016.94 1016.80 1016.48 1014.94 1014.17 1013.95 1013.08 1012.33 1011.60 1012.03 1012.38 1012.88 1013.11 1012.45 1011.70 1011.27 1010.16 1008.56 1006.81 1005.52 1004.85 1004.08 1002.93 1002.09 1001.21 1000.79 1001.25 1002.50 1002.64 1002.61 1002.31 1002.01 1001.77 1001.55 1001.27 1001.13 1000.39 999.99 999.69 999.60 999.30 999.14 999.28 999.44 999.51 999.45
1018.31 1018.00 1017.60 1017.25 1016.95 1016.87 1016.86 1016.87 1016.82 1016.16 1015.19 1014.26 1013.70 1012.59 1011.39 1010.81 1010.24 1010.20 1010.32 1010.77 1010.83 1010.44 1010.11 1010.03 1009.04 1007.80 1006.39 1005.11 1004.24 1003.86 1003.11 1002.28 1001.70 1002.06 1002.89 1003.49 1003.42 1003.09 1003.08 1002.86 1002.54 1002.24 1001.77 1001.28 1001.10 1000.69 1000.07 999.34 999.23 999.03 999.16 999.32 999.40 999.52
1017.96 1017.69 1017.55 1017.31 1017.20 1017.04 1016.93 1016.68 1016.29 1015.40 1014.26 1013.58 1012.94 1011.05 1010.17 1010.00 1010.13 1009.82 1009.57 1009.46 1009.11 1008.34 1008.76 1008.81 1007.90 1006.76 1005.63 1004.44 1003.63 1002.56 1002.29 1002.46 1003.26 1003.67 1004.01 1003.97 1003.77 1003.52 1003.62 1003.47 1003.08 1002.69 1002.17 1001.53 1001.11 1000.96 1000.34 999.77 998.96 998.85 998.76 998.70 998.81 998.99
1017.72 1017.38 1017.42 1017.29 1017.12 1017.02 1016.89 1016.39 1015.31 1014.69 1013.47 1012.85 1011.23 1010.29 1010.01 1009.73 1009.55 1009.71 1009.16 1008.69 1008.48 1007.97 1007.51 1007.72 1007.18 1006.04 1005.42 1004.60 1003.51 1003.13 1003.56 1004.25 1004.09 1004.06 1004.02 1003.90 1003.85 1003.75 1003.60 1003.28 1003.01 1002.81 1002.35 1001.85 1001.38 1000.85 1000.18 999.83 999.66 998.79 998.57 998.46 998.28 998.20
1017.12 1017.06 1017.32 1017.25 1017.08 1016.66 1015.93 1015.69 1014.91 1013.99 1013.11 1011.88 1010.78 1010.07 1009.92 1009.65 1009.36 1008.99 1008.61 1008.57 1008.55 1008.19 1007.82 1007.51 1006.99 1006.09 1005.35 1004.81 1004.60 1004.72 1003.77 1003.82 1003.45 1003.47 1003.23 1003.65 1003.62 1003.44 1003.29 1003.13 1002.95 1002.72 1002.29 1001.82 1001.43 1000.72 999.93 999.57 999.27 998.77 998.33 998.31 998.14 998.11
1017.01 1016.92 1017.02 1017.14 1017.09 1016.84 1015.70 1015.21 1014.36 1013.76 1012.98 1012.11 1011.26 1010.77 1010.34 1009.67 1009.32 1009.16 1008.96 1008.67 1008.61 1008.62 1008.35 1007.20 1006.70 1006.03 1005.91 1005.39 1004.89 1004.22 1004.08 1003.97 1003.74 1003.53 1002.90 1002.98 1003.05 1002.87 1002.91 1002.86 1002.61 1002.29 1001.92 1001.78 1001.09 1000.19 999.63 999.44 999.03 998.59 998.20 997.45 997.33 997.08
1016.79 1016.51 1016.81 1017.07 1017.20 1016.48 1015.62 1015.18 1014.78 1014.21 1013.29 1012.67 1012.35 1011.68 1011.05 1010.24 1009.66 1009.41 1009.19 1009.14 1009.08 1009.14 1008.96 1007.66 1006.89 1006.78 1006.77 1006.18 1005.73 1005.34 1004.87 1004.57 1004.11 1003.53 1003.01 1002.64 1002.41 1002.45 1002.44 1002.38 1002.12 1001.92 1001.56 1000.75 1000.11 999.79 999.09 998.79 998.48 997.87 997.69 997.61 997.48 996.79
1016.72 1016.98 1017.16 1017.06 1017.04 1016.84 1016.26 1015.80 1015.22 1015.14 1014.50 1013.49 1012.78 1012.21 1011.44 1010.77 1010.53 1010.37 1010.60 1010.52 1010.37 1010.31 1009.68 1009.24 1009.14 1008.40 1007.73 1006.96 1006.58 1006.26 1005.84 1005.58 1005.34 1004.98 1004.30 1003.58 1002.90 1002.86 1002.84 1002.51 1001.98 1001.34 1000.67 1000.05 999.64 999.18 999.04 998.52 998.24 998.01 997.78 997.39 997.19 997.12
1016.84 1016.98 1017.07 1017.15 1017.00 1016.91 1016.81 1017.00 1016.54 1015.73 1014.91 1013.84 1013.31 1012.67 1012.22 1011.81 1011.82 1012.06 1012.22 1011.87 1011.71 1011.81 1011.42 1010.58 1009.60 1008.82 1008.01 1007.27 1006.47 1006.32 1006.17 1005.82 1005.37 1004.96 1004.63 1004.20 1003.61 1003.05 1002.36 1001.83 1001.54 1001.14 1000.72 1000.37 1000.06 999.71 999.26 998.86 998.42 998.18 997.97 997.72 997.47 997.14
1016.76 1016.83 1016.96 1017.01 1016.95 1017.13 1017.46 1017.34 1016.63 1015.65 1014.82 1013.82 1013.66 1013.30 1013.10 1012.94 1013.03 1012.86 1012.74 1012.78 1012.61 1012.62 1012.04 1011.13 1010.09 1009.09 1008.09 1006.85 1006.77 1006.52 1006.13 1005.84 1005.61 1005.46 1005.24 1004.86 1004.64 1004.30 1003.89 1003.40 1002.93 1002.50 1002.03 1001.58 1001.21 1000.53 999.72 998.97 998.67 999.01 998.49 998.37 997.83 997.31
1016.64 1016.63 1016.57 1016.68 1016.83 1016.89 1017.15 1016.72 1016.32 1015.48 1014.80 1014.24 1013.79 1013.37 1013.16 1012.99 1013.06 1013.15 1013.25 1013.44 1013.48 1013.08 1012.11 1010.97 1009.94 1009.02 1007.77 1007.13 1007.05 1006.98 1007.01 1006.95 1006.68 1006.46 1006.26 1005.95 1005.51 1005.13 1004.68 1004.23 1003.82 1003.48 1002.98 1002.31 1001.72 1001.14 1000.27 999.51 999.22 998.85 998.37 997.93 997.92 997.47
1016.67 1016.55 1016.34 1016.00 1016.01 1015.89 1015.62 1015.32 1015.02 1014.65 1013.94 1013.42 1012.88 1012.44 1012.18 1012.38 1012.04 1012.58 1012.96 1013.03 1012.83 1012.65 1011.78 1011.47 1010.78 1009.89 1009.33 1008.78 1008.55 1008.20 1008.05 1007.61 1007.26 1006.87 1006.72 1006.55 1006.16 1005.49 1005.03 1004.53 1004.18 1003.72 1003.53 1002.88 1001.91 1000.98 1000.45 1000.07 999.46 998.91 998.71 998.66 998.58 998.16
1015.12 1014.78 1014.60 1013.70 1013.62 1013.50 1013.06 1012.56 1012.37 1011.95 1011.87 1011.65 1011.16 1011.04 1011.50 1011.43 1011.24 1011.90 1012.23 1012.09 1012.04 1011.89 1011.72 1011.33 1010.99 1010.47 1009.70 1008.95 1008.58 1008.30 1007.95 1007.57 1007.10 1006.58 1006.43 1006.40 1006.14 1005.80 1005.33 1004.77 1004.42 1004.07 1003.76 1003.68 1002.91 1001.89 1000.87 1000.23 999.79 999.32 998.91 998.77 998.53 998.14
1013.13 1011.86 1011.88 1011.64 1011.17 1011.12 1010.84 1010.33 1010.30 1010.10 1009.81 1009.30 1009.48 1009.66 1009.92 1010.77 1011.69 1012.33 1012.49 1012.18 1011.89 1011.68 1011.02 1010.65 1010.32 1010.05 1009.62 1009.06 1008.39 1008.04 1007.60 1007.18 1006.87 1006.33 1005.41 1005.21 1004.84 1004.63 1004.49 1004.44 1004.57 1004.48 1004.14 1003.65 1002.99 1002.42 1001.88 1001.40 1000.93 1000.27 999.66 999.10 998.72 998.30
1011.12 1010.10 1009.42 1009.76 1009.48 1009.15 1008.88 1008.72 1008.30 1008.28 1008.23 1008.05 1008.28 1009.03 1010.26 1011.39 1012.39 1012.51 1012.53 1012.60 1012.29 1011.87 1011.54 1010.69 1010.23 1009.65 1009.05 1008.65 1008.26 1007.70 1007.47 1007.30 1007.06 1006.98 1006.27 1005.54 1005.11 1004.93 1004.68 1004.33 1003.79 1003.66 1003.34 1002.98 1002.71 1002.27 1002.06 1001.62 1001.21 1000.83 1000.28 999.78 999.12 998.76
1009.43 1008.52 1008.00 1007.74 1007.63 1007.49 1007.57 1007.54 1007.68 1008.10 1008.47 1008.57 1009.15 1010.19 1011.60 1012.38 1012.78 1012.72 1012.49 1012.16 1011.70 1011.22 1010.86 1010.56 1009.94 1009.09 1008.70 1008.52 1008.20 1007.80 1007.60 1007.16 1007.03 1006.80 1006.75 1006.27 1005.61 1005.28 1005.11 1004.68 1003.88 1002.98 1002.31 1001.75 1001.29 1001.36 1001.21 1000.98 1001.01 1000.77 1000.13 999.78 999.51 999.10
1007.60 1007.55 1007.25 1007.31 1007.40 1007.51 1007.94 1007.94 1008.47 1008.88 1009.03 1009.46 1010.23 1011.24 1012.20 1013.00 1013.32 1012.93 1012.45 1012.15 1011.65 1011.03 1010.54 1009.68 1009.01 1008.74 1008.70 1008.46 1008.31 1008.28 1008.09 1007.84 1007.71 1007.74 1007.69 1007.44 1006.83 1006.40 1005.86 1005.12 1004.05 1003.06 1002.42 1001.85 1001.18 1000.52 999.96 1000.10 999.99 999.80 999.35 998.87 998.60 998.68
1006.77 1006.75 1006.73 1007.13 1007.23 1007.54 1007.74 1008.66 1009.76 1010.41 1010.93 1011.36 1011.52 1012.06 1013.13 1013.89 1014.24 1014.01 1013.60 1013.17 1012.64 1011.28 1010.88 1010.24 1009.60 1009.27 1009.34 1009.21 1008.92 1008.90 1008.84 1008.72 1008.34 1008.51 1009.04 1008.63 1008.02 1007.49 1006.87 1005.66 1004.89 1004.16 1003.13 1002.26 1001.49 1000.56 1000.00 999.88 999.43 998.93 998.52 998.15 998.00 997.83
1006.21 1006.21 1006.59 1006.61 1006.90 1007.80 1008.77 1009.59 1010.37 1011.31 1012.35 1012.80 1013.35 1013.61 1013.87 1014.05 1013.89 1013.51 1012.62 1011.97 1011.65 1011.55 1011.78 1011.23 1010.54 1010.21 1010.23 1010.31 1009.89 1009.78 1010.12 1009.21 1008.91 1009.25 1009.44 1009.25 1008.92 1008.48 1007.65 1006.34 1005.74 1004.93 1003.91 1002.74 1001.72 1000.88 1000.47 1000.31 1000.25 1000.14 999.49 998.88 998.35 997.85
1005.71 1005.66 1005.91 1005.95 1006.67 1007.74 1008.53 1009.36 1010.68 1012.38 1012.95 1013.29 1012.99 1012.99 1013.24 1012.89 1012.87 1012.55 1012.17 1012.30 1012.11 1012.00 1012.13 1011.95 1011.47 1011.11 1011.05 1010.89 1010.72 1010.52 1010.24 1009.83 1009.77 1010.12 1009.79 1009.86 1009.60 1009.08 1008.31 1007.37 1006.65 1005.82 1004.94 1004.00 1003.03 1002.42 1001.82 1001.44 1001.52 1001.43 1001.35 1000.97 1000.39 999.65
Wind_Speed
12 12 12 10 12 12 13 13 13 13 13 12 12 12 12 11 8 7 5 4 5 4 14 18 17 16 11 10 11 10 9 11 9 12 14 12 14 17 21 22 24 18 17 15 13 18 16 13 13 10 7 9 5 4
12 12 13 13 13 13 14 14 13 13 13 13 12 12 12 11 9 8 8 3 5 5 11 17 17 18 18 16 13 13 15 9 6 7 5 7 11 14 18 17 21 20 14 16 15 10 11 3 12 10 6 8 4 1
12 13 13 13 13 14 15 15 14 14 13 14 14 14 13 11 10 8 8 7 2 5 11 14 14 18 20 21 16 13 10 13 13 5 7 6 9 9 11 15 15 14 3 11 13 11 9 10 9 9 6 6 2 2
12 13 13 12 13 14 14 14 13 13 13 14 14 15 14 12 10 10 6 6 3 3 5 10 13 12 15 11 14 16 19 18 9 4 8 9 10 10 9 10 9 8 15 13 8 8 8 7 8 7 4 3 2 3
12 13 12 12 13 14 14 13 12 13 13 13 12 12 14 13 9 8 6 7 7 4 4 10 18 19 17 17 16 15 16 17 10 9 9 9 10 9 17 8 0 6 8 12 8 17 8 12 7 3 2 3 4 4
12 13 12 12 13 13 13 13 13 11 11 11 12 12 10 5 5 1 3 6 8 7 4 4 8 16 14 16 15 20 12 12 11 11 8 8 21 11 8 10 14 8 4 15 10 12 12 10 8 5 4 4 6 3
13 13 12 13 13 13 13 13 11 11 11 10 10 9 7 4 6 3 3 3 5 4 1 4 7 4 11 11 12 12 16 8 10 11 12 11 9 5 8 12 11 14 13 8 14 8 7 6 7 4 3 4 3 3
12 12 12 13 13 13 13 14 10 12 12 9 8 8 4 4 6 6 2 9 3 2 3 4 6 6 4 4 7 7 8 8 9 10 10 12 10 9 7 17 10 10 9 4 5 1 2 2 1 3 6 6 5 7
11 11 12 12 12 11 12 13 11 12 11 9 8 8 4 3 3 0 3 5 5 3 3 3 2 4 6 4 4 8 6 9 8 12 13 8 10 7 11 15 3 8 3 1 3 1 0 4 6 7 9 9 8 6
11 11 11 11 11 11 12 12 12 10 9 7 6 4 2 2 4 3 2 2 3 4 4 4 3 5 5 2 7 9 8 8 10 11 11 11 11 13 14 7 9 9 8 7 9 9 9 11 10 10 9 9 8 9
10 11 11 11 10 12 11 12 12 10 8 4 3 2 1 1 1 2 2 3 3 4 4 5 7 7 5 3 5 4 6 5 7 12 11 8 11 11 18 16 13 12 12 12 14 14 15 16 14 15 14 13 12 11
12 12 11 11 11 12 11 11 11 6 1 3 3 3 2 1 2 3 3 4 5 4 3 6 1 5 7 4 5 7 5 6 3 10 9 7 9 3 6 3 6 8 9 10 11 12 13 15 16 16 16 16 15 13
13 13 13 13 14 12 11 10 6 7 11 3 3 5 2 3 2 3 3 1 4 7 4 5 5 3 5 7 5 3 5 0 5 6 5 5 10 7 4 3 4 5 6 7 9 12 13 15 16 14 14 13 14 13
14 14 15 15 11 6 7 4 4 7 5 4 3 2 4 4 4 4 5 5 5 5 7 6 6 5 3 4 1 4 3 4 1 3 6 8 10 7 6 4 6 7 8 10 11 10 9 12 13 12 11 10 11 12
14 14 14 5 6 0 2 3 5 6 4 2 3 4 5 5 3 3 3 3 7 8 5 3 6 5 5 5 4 4 4 4 3 3 5 5 6 7 7 7 8 7 8 6 8 11 15 7 9 10 10 11 11 11
13 12 1 8 6 3 3 4 5 5 3 3 5 6 4 5 7 6 7 3 5 6 3 4 4 4 3 4 4 5 3 3 4 4 3 3 7 8 6 6 7 9 9 10 9 9 8 13 7 7 9 10 10 12
12 2 2 7 6 5 5 4 3 5 4 3 5 3 4 5 6 5 7 7 8 9 3 2 5 4 5 3 4 7 4 4 2 2 3 3 6 6 7 7 7 8 10 9 10 10 11 6 11 8 8 9 10 10
4 2 3 6 5 3 3 5 3 3 4 6 5 5 6 6 6 7 6 7 7 7 9 3 6 4 4 4 4 4 2 1 4 4 3 4 5 4 6 8 9 9 10 9 11 10 10 7 7 7 6 7 9 12
8 7 5 5 3 3 3 3 4 3 4 5 6 6 8 7 5 6 5 5 5 5 6 5 5 3 2 3 4 6 7 5 4 7 6 6 7 6 7 9 10 10 9 10 11 9 7 6 7 6 7 7 6 8
7 3 7 4 4 3 3 0 4 4 3 5 6 5 7 7 6 6 6 5 5 3 4 5 7 9 9 10 8 8 9 7 7 8 8 6 7 6 8 8 9 12 11 12 10 8 9 6 8 6 5 5 9 9
2 4 7 2 1 2 3 3 2 2 5 4 5 7 6 4 4 5 5 6 3 3 4 8 10 9 13 11 10 8 10 8 8 8 10 11 11 11 11 11 11 10 10 9 9 8 6 8 8 7 8 7 6 7
2 3 2 2 1 1 1 3 4 5 4 4 5 5 4 6 5 3 4 2 2 3 6 8 9 10 11 13 11 9 10 10 10 9 9 10 9 9 11 10 10 10 9 9 9 10 10 9 8 9 8 10 8 8
6 2 1 1 2 2 1 3 3 3 3 5 4 4 2 3 3 5 2 2 1 4 10 10 12 9 11 9 9 9 9 9 7 7 9 8 8 9 9 10 10 10 11 11 11 12 13 11 8 8 10 10 10 11
0 2 2 2 2 1 0 1 2 3 3 3 3 3 3 2 2 2 2 3 4 7 9 14 11 11 10 11 5 5 9 8 5 5 5 5 6 8 8 6 7 8 8 8 9 10 12 12 12 11 12 9 10 13
1 2 3 1 3 3 1 2 3 2 2 2 3 2 1 2 0 3 1 4 5 6 9 9 10 12 11 9 7 5 5 3 2 4 4 3 4 4 3 5 4 3 7 9 11 8 9 9 11 11 10 10 13 16
3 7 7 6 5 4 4 2 5 4 3 2 4 3 2 3 4 5 5 8 6 6 7 8 7 7 8 6 3 2 3 3 4 2 3 3 3 5 6 7 8 9 7 7 9 13 14 11 10 12 10 11 10 13
3 5 6 4 2 3 4 3 1 2 5 4 3 5 4 4 4 4 6 9 7 5 6 5 6 5 4 7 7 7 8 10 12 12 5 4 6 7 8 7 8 7 7 8 8 8 9 10 9 10 9 8 8 9
5 2 6 8 5 5 4 5 5 4 3 3 3 5 4 5 5 5 6 4 2 4 6 6 7 7 8 6 6 5 7 8 8 10 10 8 9 10 13 12 11 11 8 5 4 6 6 5 7 8 9 10 10 11
4 5 3 3 2 3 4 4 5 4 3 3 7 7 5 4 4 3 4 4 4 4 2 3 3 4 4 4 7 10 10 10 14 19 19 14 13 12 12 13 13 11 8 12 7 8 8 7 7 7 5 4 6 5
5 4 3 3 1 3 3 5 7 7 8 8 9 11 10 8 9 11 12 12 12 12 12 11 10 9 10 11 11 13 11 11 11 12 13 15 15 14 14 14 14 14 13 14 14 14 11 10 9 5 6 6 6 4
2 3 3 4 2 7 8 10 10 9 7 7 6 8 6 3 1 2 3 4 6 6 11 12 12 11 12 13 11 12 12 12 14 15 13 12 13 14 15 15 14 14 14 15 14 14 12 12 13 12 11 11 10 8
4 4 3 3 3 10 8 4 4 4 3 3 2 1 2 2 0 2 3 5 8 9 10 12 12 12 12 11 11 11 10 12 12 12 15 12 13 15 15 12 13 14 16 17 16 15 16 17 16 18 17 18 16 12
3 4 3 2 5 5 6 7 5 4 3 1 2 3 4 3 4 5 5 9 9 9 11 12 12 12 14 15 15 12 13 12 8 6 6 7 13 14 12 11 13 15 18 15 15 16 17 16 14 15 16 17 18 19
Wind_Direction
320 320 322 322 319 317 318 314 307 307 307 307 304 299 295 291 263 261 280 255 255 254 289 289 285 283 278 267 272 346 293 207 268 252 238 243 246 234 232 223 219 203 224 240 249 250 238 143 172 222 88 104 61 32
313 318 318 319 321 318 313 307 302 297 294 296 298 300 299 301 278 230 267 258 217 236 286 306 285 276 280 290 289 289 300 315 322 292 279 298 276 257 246 220 214 217 215 221 237 247 117 106 78 91 77 105 105 88
311 311 311 317 315 311 308 305 299 294 294 294 294 292 291 289 282 230 258 294 257 269 270 252 258 251 235 241 247 263 261 268 280 14 314 300 270 290 284 249 204 206 258 251 221 119 121 103 105 94 77 88 80 66
305 306 309 313 314 310 309 309 309 301 296 290 288 289 290 286 275 269 218 233 222 286 279 285 304 291 306 260 237 228 255 286 297 330 295 280 278 35 294 306 207 272 163 236 123 84 113 140 83 80 80 56 44 17
300 302 305 307 307 309 313 313 315 314 308 305 301 295 288 280 267 265 243 245 232 212 287 287 306 282 268 273 252 243 233 243 258 266 253 265 284 266 252 247 40 199 188 200 245 163 201 122 99 93 66 47 36 351
297 297 298 302 300 305 313 312 309 311 310 306 312 306 302 262 225 38 299 231 224 198 264 285 311 281 277 263 249 229 236 228 240 247 252 267 277 292 288 245 223 178 185 37 89 62 89 114 104 63 62 37 24 336
297 297 302 298 294 301 310 319 308 307 304 302 326 315 287 237 212 201 311 41 34 73 259 288 266 19 333 292 238 215 210 229 228 224 245 270 299 279 274 282 281 64 40 85 100 121 150 169 125 54 21 17 331 330
298 306 307 299 299 301 312 320 306 307 301 299 311 321 272 233 249 278 258 183 155 174 223 261 286 306 305 254 237 179 183 209 225 230 228 221 242 244 250 260 63 8 134 110 130 246 22 64 287 257 329 331 331 326
304 312 306 303 304 302 309 318 304 300 294 286 295 295 216 226 237 157 316 225 211 237 237 242 242 290 293 277 247 182 180 203 225 206 235 243 214 227 210 268 272 188 228 14 209 271 31 263 281 287 285 285 288 295
309 310 308 308 307 297 308 316 304 303 288 288 272 217 234 180 306 301 182 192 201 197 218 249 199 242 279 195 231 173 189 210 198 203 199 232 243 204 257 259 271 296 313 310 282 270 267 265 265 268 278 286 286 291
309 309 307 308 307 301 306 306 306 300 247 221 213 220 319 66 239 221 262 225 161 236 213 231 198 242 251 238 230 194 188 223 207 169 207 214 222 230 229 254 262 275 277 269 264 268 269 271 270 272 270 267 265 278
313 306 307 302 291 297 305 300 303 251 60 18 302 254 190 219 245 256 239 248 215 271 182 278 97 235 270 180 221 209 199 215 188 132 187 205 212 216 52 343 283 277 285 287 288 283 272 266 268 267 266 264 263 262
309 312 312 298 285 287 298 304 266 286 282 226 236 228 217 171 280 254 297 338 294 337 323 321 317 262 281 213 245 329 251 138 171 194 195 72 111 88 89 33 298 287 286 286 291 286 279 276 274 263 265 266 266 263
313 320 319 317 316 271 277 287 235 257 270 241 235 256 252 224 240 189 211 213 228 239 269 280 273 266 272 279 186 275 279 231 127 248 100 117 92 83 62 25 35 9 360 346 319 302 286 278 270 265 261 262 262 258
317 324 323 344 13 103 220 221 244 248 266 269 254 242 219 261 281 247 266 180 232 239 248 245 252 252 271 258 197 224 249 225 217 94 111 98 68 56 42 13 15 11 360 4 355 338 327 293 271 261 250 251 251 251
319 316 308 353 322 331 334 243 237 256 259 253 250 253 316 337 349 1 325 9 281 319 93 285 282 261 287 296 295 231 261 29 60 72 80 57 42 39 37 2 359 348 350 351 352 340 327 321 311 275 262 253 242 233
304 216 338 339 304 259 264 276 284 241 269 251 276 278 275 283 321 331 301 327 343 307 339 306 292 351 287 261 288 19 11 78 107 5 125 68 25 3 344 339 343 339 332 339 335 334 324 349 315 295 276 263 256 236
258 130 286 318 294 230 232 209 256 270 246 253 280 343 342 322 303 294 315 335 329 327 324 342 289 286 311 334 5 345 321 242 10 1 21 347 320 328 314 316 320 318 314 318 319 317 307 334 307 288 248 248 237 248
294 293 258 260 239 288 244 227 262 275 261 303 312 341 322 307 283 279 279 294 303 312 292 269 261 270 344 306 310 345 16 2 352 317 313 299 284 300 303 303 297 289 294 307 295 299 315 305 302 300 297 291 229 241
323 65 148 170 209 289 282 346 329 290 304 351 302 324 311 292 320 314 308 329 317 302 276 253 284 353 358 344 339 336 331 336 312 309 303 302 305 315 291 316 308 315 291 280 280 275 274 315 294 298 302 315 309 284
106 104 131 179 227 250 311 341 306 357 300 303 325 312 304 305 310 350 4 353 348 312 297 347 334 323 315 310 309 312 309 321 328 321 320 316 325 328 307 290 281 275 278 286 292 298 274 286 308 299 300 286 274 256
101 170 144 193 237 103 345 29 321 301 274 304 305 329 326 340 7 22 327 333 358 345 317 308 300 299 296 296 303 303 299 305 297 290 279 282 291 307 312 315 305 296 295 297 299 297 294 291 294 304 305 304 297 268
150 161 89 42 83 68 349 333 290 303 288 350 358 350 339 343 3 327 29 319 309 341 339 332 328 324 329 297 269 287 298 306 311 342 344 333 324 315 304 306 313 310 303 304 307 298 292 301 292 268 270 270 271 269
88 162 165 134 137 130 312 13 313 305 325 344 327 325 326 303 331 52 37 22 327 341 342 337 342 357 11 27 43 34 37 40 45 63 32 26 21 4 352 360 11 353 321 305 295 292 296 298 314 290 272 268 279 278
124 177 134 164 159 159 173 202 206 221 266 231 251 238 261 248 150 107 58 345 354 345 325 347 352 1 14 15 28 41 9 352 350 28 340 355 339 303 342 2 336 28 10 356 345 291 273 270 273 279 273 270 273 284
238 182 192 184 150 213 178 185 197 172 184 235 227 126 176 307 48 57 31 7 356 335 335 326 325 334 350 353 350 304 280 258 256 339 319 345 350 345 348 357 347 342 353 338 340 3 7 0 354 353 345 330 311 283
256 157 171 230 237 187 222 209 257 217 229 180 157 180 180 88 68 47 13 10 3 348 334 312 307 312 338 0 6 16 12 15 9 351 355 3 352 23 355 352 328 299 314 306 325 343 354 353 351 352 357 1 357 340
268 181 174 158 208 210 210 188 193 81 28 14 41 41 51 44 47 25 36 26 317 303 310 347 5 359 359 6 359 10 23 14 22 13 353 4 4 3 357 347 342 317 288 258 303 317 302 318 328 329 340 346 353 357
211 229 214 191 212 89 40 47 71 65 26 63 77 80 85 94 151 201 240 238 236 244 83 14 328 348 30 25 6 9 8 8 8 6 3 352 347 352 352 342 333 325 328 322 284 233 264 267 253 261 275 299 302 322
183 192 250 117 75 74 53 51 66 55 52 68 101 113 93 55 24 10 12 12 4 6 356 351 2 12 7 2 5 6 9 359 17 3 358 347 342 343 340 334 325 336 335 326 326 324 315 320 300 257 260 253 244 245
149 243 166 110 94 112 109 99 79 64 52 51 55 100 100 103 61 298 318 316 299 320 4 352 357 8 9 357 3 355 0 346 2 14 13 346 348 347 338 333 347 337 332 329 320 313 332 328 323 331 334 338 356 336
204 191 216 172 142 106 99 117 111 90 70 52 73 100 135 89 293 243 297 326 8 10 4 350 353 2 7 354 357 354 356 339 356 11 6 3 353 352 335 347 351 347 341 339 338 343 357 3 3 356 347 349 346 345
240 239 232 215 118 154 187 166 117 97 77 61 233 171 165 206 59 21 30 14 6 13 7 353 351 357 358 360 358 351 350 347 20 110 75 31 350 340 332 349 349 356 350 351 357 357 355 13 16 15 10 11 9 5